TimeEST,TemperatureF,Dew PointF,Humidity,Sea Level PressureIn,VisibilityMPH,Wind Direction,Wind SpeedMPH,Gust SpeedMPH,PrecipitationIn,Events,Conditions,WindDirDegrees,DateUTC
12:51 AM,35.1,17.1,48,29.79,10.0,WNW,13.8,28.8,N/A,,Partly Cloudy,300,2013-11-28 05:51:00
1:51 AM,34.0,16.0,48,29.83,10.0,WNW,20.7,25.3,N/A,,Mostly Cloudy,300,2013-11-28 06:51:00
2:51 AM,33.1,15.1,48,29.88,10.0,West,13.8,25.3,N/A,,Scattered Clouds,280,2013-11-28 07:51:00
3:51 AM,33.1,15.1,48,29.93,10.0,WNW,11.5,25.3,N/A,,Mostly Cloudy,290,2013-11-28 08:51:00
4:51 AM,32.0,14.0,48,30.00,10.0,NW,17.3,35.7,N/A,,Mostly Cloudy,310,2013-11-28 09:51:00
5:51 AM,32.0,16.0,52,30.05,10.0,WNW,13.8,25.3,N/A,,Overcast,290,2013-11-28 10:51:00
6:51 AM,32.0,16.0,52,30.11,10.0,WNW,13.8,-,N/A,,Overcast,300,2013-11-28 11:51:00
7:51 AM,32.0,14.0,48,30.16,10.0,NW,18.4,25.3,N/A,,Overcast,320,2013-11-28 12:51:00
8:51 AM,32.0,12.0,44,30.19,10.0,WNW,25.3,34.5,N/A,,Clear,300,2013-11-28 13:51:00
9:51 AM,32.0,12.0,44,30.24,10.0,NW,16.1,26.5,N/A,,Partly Cloudy,320,2013-11-28 14:51:00
10:51 AM,33.1,10.9,40,30.24,10.0,NW,19.6,29.9,N/A,,Clear,310,2013-11-28 15:51:00
11:51 AM,35.1,10.0,35,30.25,10.0,NW,18.4,24.2,N/A,,Clear,320,2013-11-28 16:51:00
12:51 PM,36.0,10.0,34,30.25,10.0,NW,17.3,26.5,N/A,,Clear,310,2013-11-28 17:51:00
1:51 PM,36.0,9.0,33,30.27,10.0,NW,13.8,23.0,N/A,,Clear,320,2013-11-28 18:51:00
2:51 PM,36.0,7.0,30,30.29,10.0,NW,12.7,-,N/A,,Clear,320,2013-11-28 19:51:00
3:51 PM,35.1,8.1,33,30.32,10.0,NW,10.4,-,N/A,,Clear,310,2013-11-28 20:51:00
4:51 PM,33.1,9.0,37,30.35,10.0,WNW,5.8,-,N/A,,Clear,290,2013-11-28 21:51:00
5:51 PM,33.1,9.0,37,30.40,10.0,Calm,Calm,-,N/A,,Clear,0,2013-11-28 22:51:00
6:51 PM,32.0,9.0,38,30.42,10.0,Calm,Calm,-,N/A,,Clear,0,2013-11-28 23:51:00
7:51 PM,30.9,10.9,43,30.44,10.0,West,3.5,-,N/A,,Clear,270,2013-11-29 00:51:00
8:51 PM,32.0,10.0,40,30.45,10.0,Calm,Calm,-,N/A,,Overcast,0,2013-11-29 01:51:00
9:51 PM,30.9,12.0,46,30.46,10.0,Calm,Calm,-,N/A,,Overcast,0,2013-11-29 02:51:00
10:51 PM,32.0,14.0,48,30.47,10.0,Calm,Calm,-,N/A,,Overcast,0,2013-11-29 03:51:00
11:51 PM,32.0,15.1,50,30.48,10.0,Calm,Calm,-,N/A,,Overcast,0,2013-11-29 04:51:00